Simultaneous Nadir Overpasses (SNOs) Predictions

Prediction of SNOs between LANDSAT-8 and METOP-A Satellite Orbit:

Table of predicted SNOs for the next 14.0 days since TLE Epoch: 7/25/2016
Index Date (LANDSAT-8) Time (LANDSAT-8) Lat,Lon (LANDSAT-8) SZA (LANDSAT-8 ) Date (METOP-A) Time (METOP-A) Lat,Lon (METOP-A) SZA (METOP-A ) Distance(km) Time Diff (sec)
1 07/26/2016 15:33:26 -81.19, 167.68 115.98 07/26/2016 15:32:59 -81.18, 167.69 115.99 0.35 27
2 07/26/2016 16:22:52 81.19, -24.57 64.05 07/26/2016 16:23:38 81.20, -24.51 64.08 1.14 46
3 07/29/2016 11:07:41 -81.18,-125.95 115.33 07/29/2016 11:07:19 -81.19,-125.77 115.32 3.10 22
4 07/29/2016 11:57:07 81.19, 41.77 64.69 07/29/2016 11:57:59 81.19, 41.62 64.70 2.68 52
5 08/01/2016 06:41:57 -81.18, -59.61 114.65 08/01/2016 06:41:41 -81.18, -59.63 114.66 0.47 16
6 08/01/2016 07:31:22 81.20, 108.46 65.43 08/01/2016 07:32:19 81.20, 108.49 65.45 0.63 57
7 08/04/2016 02:16:12 -81.19, 7.06 113.88 08/04/2016 02:16:01 -81.19, 7.25 113.86 3.30 11
8 08/04/2016 03:05:38 81.19, 174.73 66.14 08/04/2016 03:06:41 81.19, 174.59 66.15 2.50 63
9 08/06/2016 21:50:27 -81.18, 73.33 113.13 08/06/2016 21:50:22 -81.18, 73.36 113.13 0.63 5




NCC Satellite Simultaneous Nadir Overpasses (SNOs) Prediction Service
